Simultaneous Nadir Overpasses (SNOs) Predictions

Prediction of SNOs between NOAA-19 and TERRA Satellite Orbit:

Table of predicted SNOs for the next 14.0 days since TLE Epoch: 1/20/2024
Index Date (NOAA-19) Time (NOAA-19) Lat,Lon (NOAA-19) SZA (NOAA-19 ) Date (TERRA) Time (TERRA) Lat,Lon (TERRA) SZA (TERRA ) Distance(km) Time Diff (sec)
1 01/20/2024 16:25:15 80.45, -40.43 101.26 01/20/2024 16:25:01 80.45, -40.45 101.25 0.42 14
2 01/22/2024 19:24:31 80.38, -86.27 100.65 01/22/2024 19:25:21 80.38, -86.17 100.67 1.84 50
3 01/22/2024 20:15:32 -80.45, 82.17 79.22 01/22/2024 20:14:41 -80.45, 82.10 79.24 1.48 51
4 01/24/2024 23:14:47 -80.40, 36.56 79.83 01/24/2024 23:15:00 -80.40, 36.58 79.82 0.37 13
5 01/27/2024 03:04:53 80.41, 159.25 99.66 01/27/2024 03:04:38 80.41, 159.18 99.64 1.37 15
6 01/29/2024 06:04:08 80.36, 113.60 99.00 01/29/2024 06:04:56 80.36, 113.64 99.01 0.81 48
7 01/29/2024 06:55:09 -80.42, -78.20 80.90 01/29/2024 06:54:17 -80.40, -78.29 80.94 2.20 52
8 01/31/2024 09:54:23 -80.37,-123.67 81.57 01/31/2024 09:54:34 -80.38,-123.63 81.56 0.96 11
9 02/02/2024 12:53:47 -80.10,-172.43 82.65 02/02/2024 12:55:01 -79.99,-172.05 82.72 14.23 74



Historial Predications of SNOs between NOAA-19 and TERRA
